7 * 24
多渠道服务支持
ORBCOMM FM 109是由ORBCOMM公司发射的低轨通信卫星,于2014年7月14日成功发射入轨,隶属于ORBCOMM卫星星座系统。该卫星主要面向全球机器对机器(M2M)通信领域,为物联网、交通运输、资产管理等行业提供低功耗、广覆盖的卫星数据通信服务,支持偏远地区设备监测、位置追踪等应用,是全球窄带卫星通信网络建设的重要组成部分,助力天地一体化通信网络的覆盖延伸。
(ORB)
| 数据来源 | 国际轨道数据 |
| 星历时间: | 2026-09-10T11:47:09+0800 1天前 查看轨道信息 |
| 半长轴: | 7074.822km |
| 偏心率: | 0.0002025 |
| 轨道倾角: | 47.004° |
| 近地点辐角 | 249.506° |
| 升交点赤经 | 49.729° |
| 平近点角 | 110.561° |
| 近地点: | 695.252km |
| 远地点: | 698.118km |
| 周期: | 98.704分钟 |
| 每日圈数: | 14.589134 |